Location: Harwich
(41.7160°N, 69.9939°W)
Time: 06:51:06
(UTC+01:00)

Altair - All Passes

Search period start: 30 January 2023 00:00
Search period end: 09 February 2023 00:00
Orbit: 1501 x 1683 km, 47.2° (Epoch: 29 January)

Date Brightness Start Highest point End Pass type
(mag) Time Alt. Az. Time Alt. Az. Time Alt. Az.
30 Jan - 01:43:04 10° SW 01:52:36 64° SE 02:02:30 10° ENE visible
30 Jan - 03:47:39 10° W 03:57:34 71° NNW 04:07:45 10° ENE visible
30 Jan - 05:53:24 10° WNW 06:03:27 68° N 06:13:37 10° E night (unlit)
30 Jan - 07:58:36 10° WNW 08:08:43 73° SSW 08:18:46 10° SE visible
30 Jan - 10:04:36 10° WNW 10:12:24 26° SW 10:20:07 10° S visible
30 Jan - 23:18:37 10° SSE 23:24:17 17° ESE 23:30:03 10° E visible
31 Jan - 01:18:01 10° SW 01:27:26 60° SE 01:37:13 10° ENE visible
31 Jan - 03:22:24 10° W 03:32:16 73° NNW 03:42:28 10° ENE visible
31 Jan - 05:28:08 10° WNW 05:38:09 67° N 05:48:18 10° E visible
31 Jan - 07:33:21 10° WNW 07:43:30 77° SSW 07:53:36 10° SE visible
31 Jan - 09:39:09 10° WNW 09:47:18 29° SW 09:55:23 10° S visible
31 Jan - 22:54:20 10° SSE 22:59:15 15° ESE 23:04:14 10° E daylight
01 Feb - 00:52:59 10° SW 01:02:16 55° SE 01:11:56 10° ENE visible
01 Feb - 02:57:09 10° WSW 03:07:00 75° NNW 03:17:11 10° ENE visible
01 Feb - 05:02:52 10° WNW 05:12:50 66° N 05:22:59 10° E visible
01 Feb - 07:08:07 10° WNW 07:18:16 81° SSW 07:28:25 10° SE visible
01 Feb - 09:13:44 10° WNW 09:22:12 31° SW 09:30:36 10° S visible
01 Feb - 22:30:17 10° SE 22:34:14 13° ESE 22:38:13 10° E daylight
02 Feb - 00:27:59 10° SSW 00:37:08 52° SE 00:46:38 10° ENE visible
02 Feb - 02:31:54 10° WSW 02:41:43 78° NNW 02:51:54 10° ENE visible
02 Feb - 04:37:35 10° WNW 04:47:31 65° N 04:57:39 10° E visible
02 Feb - 06:42:52 10° WNW 06:53:02 85° SSW 07:03:13 10° ESE night (unlit)
02 Feb - 08:48:22 10° WNW 08:57:05 34° SW 09:05:46 10° SSE visible
02 Feb - 22:06:41 10° SE 22:09:13 11° ESE 22:11:45 10° ESE daylight
03 Feb - 00:03:01 10° SSW 00:12:00 48° SE 00:21:21 10° ENE visible
03 Feb - 02:06:41 10° WSW 02:16:28 80° NNW 02:26:37 10° ENE visible
03 Feb - 04:12:19 10° WNW 04:22:13 64° N 04:32:20 10° E visible
03 Feb - 06:17:38 10° WNW 06:27:48 89° SSW 06:38:00 10° ESE night (unlit)
03 Feb - 08:23:00 10° WNW 08:31:58 37° SW 08:40:54 10° SSE visible
03 Feb - 23:38:04 10° SSW 23:46:53 44° SE 23:56:02 10° ENE visible
04 Feb - 01:41:28 10° WSW 01:51:13 83° NNW 02:01:21 10° ENE visible
04 Feb - 03:47:03 10° W 03:56:54 64° N 04:07:01 10° E visible
04 Feb - 05:52:24 10° WNW 06:02:33 88° NNE 06:12:46 10° ESE visible
04 Feb - 07:57:41 10° WNW 08:06:51 40° SW 08:15:59 10° SSE night (unlit)
04 Feb - 23:13:09 10° SSW 23:21:46 41° SE 23:30:42 10° ENE visible
05 Feb - 01:16:16 10° WSW 01:25:58 86° NNW 01:36:05 10° ENE visible
05 Feb - 03:21:47 10° W 03:31:36 64° N 03:41:41 10° E visible
05 Feb - 05:27:11 10° WNW 05:37:17 85° NNE 05:47:31 10° ESE visible
05 Feb - 07:32:22 10° WNW 07:41:41 44° SW 07:51:02 10° SSE night (unlit)
05 Feb - 22:48:16 10° SSW 22:56:40 37° SE 23:05:22 10° ENE daylight
06 Feb - 00:51:05 10° WSW 01:00:44 90° NNW 01:10:49 10° ENE visible
06 Feb - 02:56:31 10° W 03:06:17 64° N 03:16:21 10° E visible
06 Feb - 05:01:57 10° WNW 05:12:01 82° NNE 05:22:15 10° ESE visible
06 Feb - 07:07:05 10° WNW 07:16:33 47° SW 07:26:03 10° SSE night (unlit)
06 Feb - 09:16:39 10° WSW 09:19:30 11° WSW 09:22:20 10° SW night (unlit)
06 Feb - 22:23:26 10° SSW 22:31:35 34° SE 22:40:00 10° ENE daylight
07 Feb - 00:25:55 10° WSW 00:35:31 87° SSE 00:45:33 10° ENE visible
07 Feb - 02:31:15 10° W 02:40:59 64° N 02:51:03 10° ENE visible
07 Feb - 04:36:43 10° WNW 04:46:45 79° NNE 04:56:59 10° ESE visible
07 Feb - 06:41:49 10° WNW 06:51:24 51° SW 07:01:02 10° SSE night (unlit)
07 Feb - 08:50:14 10° W 08:54:27 13° WSW 08:58:40 10° SSW night (unlit)
07 Feb - 21:58:38 10° S 22:06:30 31° SE 22:14:38 10° ENE daylight
08 Feb - 00:00:46 10° WSW 00:10:18 83° SSE 00:20:17 10° ENE visible
08 Feb - 02:05:59 10° W 02:15:41 65° N 02:25:44 10° ENE visible
08 Feb - 04:11:29 10° WNW 04:21:29 76° NNE 04:31:41 10° ESE visible
08 Feb - 06:16:33 10° WNW 06:26:14 54° SW 06:35:59 10° SSE night (unlit)
08 Feb - 08:24:14 10° W 08:29:24 15° WSW 08:34:34 10° SSW night (unlit)
08 Feb - 21:33:52 10° S 21:41:26 28° SE 21:49:13 10° ENE daylight
08 Feb - 23:35:37 10° SW 23:45:07 79° SSE 23:55:02 10° ENE visible
